Menominee, MI

4:13 PM CDT on April 24, 2018 (GMT -0500)
Menominee-Marinette Twin County

Weather History for KMNM - March, 2013

Change the Weather History Date:

Monday, March 25, 2013

  Actual Average Record
Temperature  
Mean Temperature 29 °F -  
Max Temperature 35 °F 44 °F 61 °F (1968)
Min Temperature 23 °F 24 °F 4 °F (1960)
Degree Days  
Heating Degree Days 36    
Moisture  
Dew Point 21 °F    
Average Humidity 69    
Maximum Humidity 93    
Minimum Humidity 52    
Precipitation  
Precipitation 0.00 in - - ()
Sea Level Pressure  
Sea Level Pressure 29.96 in    
Wind  
Wind Speed 12 mph (NNE)    
Max Wind Speed 18 mph    
Max Gust Speed 24 mph    
Visibility 10 miles    
Events      
Averages and records for this station are not official NWS values.
T = Trace of Precipitation, MM = Missing Value Source: NWS Daily Summary

Daily Weather History Graph

Daily Weather History Graph

Search for Another Location

Airport or City:

Astronomy

Mar. 25, 2013 Rise Set
Actual Time 6:43 AM CDT 7:09 PM CDT
Civil Twilight 6:14 AM CDT 7:39 PM CDT
Nautical Twilight 5:39 AM CDT 8:14 PM CDT
Astronomical Twilight 5:03 AM CDT 8:50 PM CDT
Moon 5:38 PM CDT (3/25) 5:30 AM CDT (3/25)
Length of Visible Light 13h 25m
Length of Day
12h 26m
Waxing Gibbous, 96% of the Moon is Illuminated
Mar 25
Waxing Gibbous
Mar 27
Full
Apr 2
Last Quarter
Apr 10
New
Apr 18
First Quarter

Hourly Weather History & Observations

Time (CDT) Temp. Windchill Dew Point Humidity Pressure Visibility Wind Dir Wind Speed Gust Speed Precip Events Conditions
12:15 AM 26.6 °F 16.2 °F 17.6 °F 69% 29.90 in 10.0 mi North 11.5 mph - N/A   Clear
12:35 AM 24.8 °F 14.6 °F 17.6 °F 74% 29.90 in 10.0 mi North 10.4 mph - N/A   Clear
12:55 AM 24.8 °F 14.0 °F 19.4 °F 80% 29.89 in 10.0 mi North 11.5 mph 17.3 mph N/A   Clear
1:15 AM 24.8 °F 14.6 °F 19.4 °F 80% 29.89 in 10.0 mi North 10.4 mph - N/A   Clear
1:35 AM 24.8 °F 14.0 °F 21.2 °F 86% 29.88 in 10.0 mi North 11.5 mph - N/A   Clear
1:55 AM 24.8 °F 14.0 °F 21.2 °F 86% 29.88 in 10.0 mi North 11.5 mph - N/A   Clear
2:15 AM 24.8 °F 14.6 °F 21.2 °F 86% 29.88 in 10.0 mi North 10.4 mph - N/A   Clear
2:35 AM 24.8 °F 14.0 °F 21.2 °F 86% 29.88 in 10.0 mi North 11.5 mph - N/A   Clear
2:55 AM 24.8 °F 14.6 °F 19.4 °F 80% 29.88 in 10.0 mi NNE 10.4 mph - N/A   Clear
3:15 AM 24.8 °F 15.3 °F 19.4 °F 80% 29.88 in 10.0 mi North 9.2 mph - N/A   Clear
3:55 AM 24.8 °F 15.3 °F 19.4 °F 80% 29.88 in 10.0 mi North 9.2 mph - N/A   Clear
4:15 AM 24.8 °F 14.6 °F 19.4 °F 80% 29.88 in 10.0 mi North 10.4 mph - N/A   Clear
4:35 AM 24.8 °F 14.6 °F 21.2 °F 86% 29.88 in 10.0 mi North 10.4 mph - N/A   Clear
4:55 AM 23.0 °F 13.1 °F 21.2 °F 93% 29.88 in 10.0 mi North 9.2 mph - N/A   Clear
5:15 AM 23.0 °F 13.9 °F 21.2 °F 93% 29.88 in 10.0 mi North 8.1 mph - N/A   Clear
5:35 AM 24.8 °F 14.6 °F 19.4 °F 80% 29.88 in 10.0 mi North 10.4 mph - N/A   Clear
5:55 AM 24.8 °F 15.3 °F 19.4 °F 80% 29.88 in 10.0 mi North 9.2 mph - N/A   Clear
6:15 AM 24.8 °F 16.1 °F 19.4 °F 80% 29.89 in 10.0 mi North 8.1 mph - N/A   Scattered Clouds
6:35 AM 23.0 °F 13.9 °F 19.4 °F 86% 29.89 in 10.0 mi North 8.1 mph - N/A   Overcast
6:55 AM 24.8 °F 16.1 °F 19.4 °F 80% 29.90 in 10.0 mi North 8.1 mph - N/A   Overcast
7:15 AM 24.8 °F 15.3 °F 19.4 °F 80% 29.90 in 10.0 mi North 9.2 mph - N/A   Overcast
7:35 AM 26.6 °F 16.8 °F 21.2 °F 80% 29.91 in 10.0 mi North 10.4 mph - N/A   Overcast
7:55 AM 26.6 °F 17.5 °F 21.2 °F 80% 29.92 in 10.0 mi North 9.2 mph - N/A   Overcast
8:15 AM 28.4 °F 19.1 °F 21.2 °F 74% 29.92 in 10.0 mi NNE 10.4 mph 16.1 mph N/A   Overcast
8:35 AM 28.4 °F 18.5 °F 23.0 °F 80% 29.92 in 10.0 mi NNE 11.5 mph 19.6 mph N/A   Overcast
8:55 AM 30.2 °F 18.9 °F 23.0 °F 75% 29.92 in 10.0 mi NE 16.1 mph 24.2 mph N/A   Overcast
9:15 AM 30.2 °F 19.3 °F 23.0 °F 75% 29.93 in 10.0 mi NNE 15.0 mph 19.6 mph N/A   Overcast
9:35 AM 30.2 °F 20.2 °F 24.8 °F 80% 29.93 in 10.0 mi NNE 12.7 mph 19.6 mph N/A   Overcast
9:55 AM 30.2 °F 20.2 °F 24.8 °F 80% 29.94 in 8.0 mi NNE 12.7 mph 17.3 mph N/A   Overcast
10:15 AM 30.2 °F 18.5 °F 23.0 °F 75% 29.94 in 10.0 mi NE 17.3 mph 20.7 mph N/A   Overcast
10:35 AM 30.2 °F 20.8 °F 21.2 °F 69% 29.95 in 10.0 mi NE 11.5 mph - N/A   Overcast
10:55 AM 30.2 °F 18.1 °F 21.2 °F 69% 29.95 in 10.0 mi NE 18.4 mph - N/A   Overcast
11:15 AM 32.0 °F 22.1 °F 21.2 °F 64% 29.96 in 10.0 mi NE 13.8 mph 19.6 mph N/A   Overcast
11:35 AM 32.0 °F 21.2 °F 21.2 °F 64% 29.96 in 10.0 mi NE 16.1 mph 23.0 mph N/A   Overcast
11:55 AM 33.8 °F 25.3 °F 21.2 °F 60% 29.96 in 10.0 mi North 11.5 mph 16.1 mph N/A   Overcast
12:15 PM 33.8 °F 24.3 °F 21.2 °F 60% 29.96 in 10.0 mi North 13.8 mph 19.6 mph N/A   Overcast
12:35 PM 33.8 °F 23.5 °F 21.2 °F 60% 29.96 in 10.0 mi NNE 16.1 mph 24.2 mph N/A   Overcast
12:55 PM 33.8 °F 23.5 °F 21.2 °F 60% 29.96 in 10.0 mi NNE 16.1 mph 23.0 mph N/A   Overcast
1:15 PM 33.8 °F 23.2 °F 23.0 °F 65% 29.96 in 10.0 mi NNE 17.3 mph 24.2 mph N/A   Overcast
1:35 PM 35.6 °F 26.6 °F 21.2 °F 56% 29.96 in 10.0 mi NNE 13.8 mph 18.4 mph N/A   Overcast
1:55 PM 35.6 °F 25.9 °F 21.2 °F 56% 29.96 in 10.0 mi NNE 16.1 mph - N/A   Overcast
2:15 PM 35.6 °F 26.6 °F 21.2 °F 56% 29.96 in 10.0 mi North 13.8 mph 21.9 mph N/A   Overcast
2:35 PM 35.6 °F 25.2 °F 21.2 °F 56% 29.96 in 10.0 mi NE 18.4 mph 21.9 mph N/A   Overcast
2:55 PM 35.6 °F 27.5 °F 21.2 °F 56% 29.96 in 10.0 mi NNE 11.5 mph 20.7 mph N/A   Overcast
3:15 PM 35.6 °F 27.5 °F 21.2 °F 56% 29.96 in 10.0 mi North 11.5 mph 17.3 mph N/A   Overcast
3:35 PM 35.6 °F 26.2 °F 19.4 °F 52% 29.96 in 10.0 mi NNE 15.0 mph 23.0 mph N/A   Overcast
3:55 PM 35.6 °F 26.2 °F 21.2 °F 56% 29.96 in 10.0 mi NE 15.0 mph 24.2 mph N/A   Overcast
4:15 PM 35.6 °F 28.6 °F 19.4 °F 52% 29.97 in 10.0 mi North 9.2 mph 16.1 mph N/A   Overcast
4:35 PM 35.6 °F 27.1 °F 19.4 °F 52% 29.97 in 10.0 mi NE 12.7 mph 17.3 mph N/A   Overcast
4:55 PM 35.6 °F 27.5 °F 21.2 °F 56% 29.98 in 10.0 mi North 11.5 mph 17.3 mph N/A   Overcast
5:15 PM 35.6 °F 27.5 °F 19.4 °F 52% 29.98 in 10.0 mi North 11.5 mph 19.6 mph N/A   Overcast
5:35 PM 35.6 °F 26.2 °F 19.4 °F 52% 29.99 in 10.0 mi NNE 15.0 mph 19.6 mph N/A   Overcast
5:55 PM 35.6 °F 28.0 °F 21.2 °F 56% 30.00 in 10.0 mi NNE 10.4 mph - N/A   Overcast
6:15 PM 35.6 °F 28.0 °F 21.2 °F 56% 30.00 in 10.0 mi North 10.4 mph - N/A   Overcast
6:35 PM 35.6 °F 26.6 °F 21.2 °F 56% 30.01 in 10.0 mi NNE 13.8 mph - N/A   Overcast
6:55 PM 33.8 °F 24.8 °F 21.2 °F 60% 30.03 in 10.0 mi NNE 12.7 mph 18.4 mph N/A   Overcast
7:15 PM 33.8 °F 25.3 °F 21.2 °F 60% 30.03 in 10.0 mi NNE 11.5 mph 18.4 mph N/A   Overcast
7:35 PM 33.8 °F 25.3 °F 21.2 °F 60% 30.05 in 10.0 mi NNE 11.5 mph - N/A   Overcast
7:55 PM 33.8 °F 25.3 °F 21.2 °F 60% 30.05 in 10.0 mi NNE 11.5 mph 17.3 mph N/A   Overcast
8:15 PM 33.8 °F 26.4 °F 21.2 °F 60% 30.06 in 10.0 mi NNE 9.2 mph - N/A   Overcast
8:35 PM 32.0 °F 23.6 °F 21.2 °F 64% 30.07 in 10.0 mi North 10.4 mph - N/A   Overcast
8:55 PM 32.0 °F 23.0 °F 21.2 °F 64% 30.07 in 10.0 mi North 11.5 mph 16.1 mph N/A   Overcast
9:15 PM 32.0 °F 22.1 °F 21.2 °F 64% 30.07 in 10.0 mi North 13.8 mph 20.7 mph N/A   Overcast
9:35 PM 32.0 °F 23.0 °F 21.2 °F 64% 30.08 in 10.0 mi North 11.5 mph 16.1 mph N/A   Overcast
9:55 PM 30.2 °F 21.3 °F 23.0 °F 75% 30.08 in 10.0 mi North 10.4 mph 16.1 mph N/A   Overcast
10:15 PM 30.2 °F 19.8 °F 21.2 °F 69% 30.08 in 10.0 mi North 13.8 mph 18.4 mph N/A   Overcast
10:35 PM 30.2 °F 19.8 °F 21.2 °F 69% 30.08 in 10.0 mi NNW 13.8 mph - N/A   Overcast
10:55 PM 30.2 °F 21.3 °F 21.2 °F 69% 30.08 in 10.0 mi NNW 10.4 mph - N/A   Overcast
11:15 PM 30.2 °F 20.8 °F 21.2 °F 69% 30.08 in 10.0 mi NNW 11.5 mph - N/A   Overcast
11:35 PM 30.2 °F 20.8 °F 21.2 °F 69% 30.08 in 10.0 mi NNW 11.5 mph - N/A   Overcast
11:55 PM 30.2 °F 22.6 °F 21.2 °F 69% 30.09 in 10.0 mi North 8.1 mph - N/A   Overcast